User: anonymous   Login
Location: Unspecified
(0.0000°N, 0.0000°E)
Time: 06:29:49
(UTC+01:00)
Language:

YAOGAN 1 - Orbit

View from above orbital plane
View from above orbital plane
View from above satellite
View from above satellite

Ground track
Ground track

The orbit data is extracted from the following two-line orbital elements,

1 29092U 06015A   15030.06958215  .00000798  00000-0  10685-3 0  2809
2 29092 097.9916 029.9994 0001479 105.1213 345.2709 14.82182207473594
Epoch (UTC): 30 January 2015 01:40:11
Eccentricity: 0.0001479
inclination: 97.9916°
perigee height: 621 km
apogee height: 623 km
right ascension of ascending node: 29.9994°
argument of perigee: 105.1213°
revolutions per day: 14.82182207
mean anomaly at epoch: 345.2709°
orbit number at epoch: 47359

The dashed part of the orbit path shows where the satellite is in the earth's shadow,  

DLR